{"data":{"norad_id":58862,"epoch":"2026-05-25T03:04:29.803008Z","epoch_age_seconds":74102,"freshness":"FRESH","line1":"1 58862U 24019K   26145.12812272 -.00003639  00000+0 -12272-3 0  9997","line2":"2 58862  43.0015 177.1548 0001170 283.0245  77.0476 15.27596663130779","mean_motion":15.27596663,"eccentricity":0.000117,"inclination_deg":43.0015,"raan_deg":177.1548,"arg_perigee_deg":283.0245,"mean_anomaly_deg":77.0476,"bstar":-0.00012272,"rev_number":13077,"period_min":94.265720453462,"perigee_km":482.19644854114,"apogee_km":483.80195441229,"semimajor_km":6861.1362014767,"source":"CELESTRAK","updated_at":"2026-05-25T13:38:18.759149Z"}}